STARLINK-1210, 45207

Orbit data source: Space-Track

STARLINK-1210, 45207 is a payload satellite owned by SpaceX/Seattle (US) in LEO that was launched on Mon, 17 Feb 2020 UTC via an FALCON 9 launch vehicle from the Air Force Eastern Test Range (AFETR). Payload-class satellites include a variety of spacecraft equipped with specific instruments for various scientific and technological missions. These include communications satellites like Starlink; space stations such as the ISS; scientific satellites like the Hubble; Earth observation satellites from companies like Planet Labs, Umbra, and HawkEye 360; GPS; miniature CubeSats for education and research; and military/defense satellites.

Loading next visibility...
Identifier
45207, 2020-012AF
Orbit
LEO
Last TLE update
5 hours ago
Origin
Manufacturer
SpaceX/Seattle
Mission
Partially operational Commercial Communications
Bus & Motor
STARLINK, Unknown motor
Mass
260 kg wet, ~248 kg dry
Launch date (UTC)
2020-02-17 (5 years ago)
Launch vehicle
FALCON 9
Launch site
Air Force Eastern Test Range (AFETR)
Object type
Payload
Rocket body
Debris
Shape & HBR
Box + 1 Pan, 4.4 m
Radar Cross Section
13.562 m², Large (>1 m²)

Expand to show TLE details & history

TLE from 5 hours ago
0 STARLINK-1210
1 45207U 20012AF  25199.51712152  .00068493  00000-0  18831-2 0  9996
2 45207  53.0318 326.6607 0004761  64.6206 295.5288 15.36585291299321
Epoch: 2025-07-18T12:24Z
TLE epoch observation values (Epoch: 2025-07-18T12:24:39.299Z)
Latitude
-0.00004°
Longitude
-156.07052°
Altitude
455.703 km
Speed
7.641 km/s
True Right ascension
21h 46m 38s
True Declination
0° 00' 00"
Sunlit
Object was in full shadow at epoch
Visualization orbit readout
Latitude
-3.82863°
Longitude
-159.85591°
Altitude
456.482 km
Speed
7.64 km/s
Apparent Right ascension
20h 00m 47s
Apparent Declination
-23° 27' 33"
Sunlit
Object is in full shadow
Visualization observer readout
Local Sidereal Time
05:50:57
Azimuth
291.238° WNW
Elevation
-58.116°
Doppler factor
1
Orbital elements
Apogee altitude
459.748 km
Perigee altitude
453.24 km
Semi-major axis
6,834.631 km
Eccentricity
0.00048
Inclination
53.0318°
RAAN
326.6607°
Arg. of periapsis
64.6206°
True anomaly
295.47956°
Mean anomaly
295.5288°
Eccentric anomaly
295.50418°
Mean motion
3.84123 °/min
Orbital period
93.72 mins
BSTAR
0.0018831
Loading maneuver chart data...
Loading SW <> Apogee altitude chart data...
|